Notices

What's New in latest Release from April 7th, 2021:

- Updated Glossary, including Speed of Maximum Gust, and Total Hourly Precipitation

- Updated national and regional climate services offices contacts and prices information

- Addition of station inventory lists for 1981-2010, 1971-2000, and 1961-1990 Normals.

If you haven't already, please take our survey and provide feedback about our website: https://eccc.sondage-survey.ca/f/LanguageSelection.aspx?s=442ca660-fcf1-47c0-95a9-59707d6fd709

Hourly Data Report for April 27, 2020

MIRAMICHI RCS
NEW BRUNSWICK
Current Station Operator: ECCC - MSC

47°00'34.000" N
65°27'54.000" W
33.00 m
8100989
71744
ACQ

Download Data

Hourly Data (April 2020)
Hourly Data Report for April 27, 2020
TIME
LST
Temp Definition
°C
Dew Point Definition
°C
Rel Hum Definition
%
Precip. Amount Definition
mm

Wind Dir Definition
10's deg

Wind Spd Definition
km/h
Visibility Definition
km
Stn Press Definition
kPa
Hmdx Definition


Wind Chill Definition


Weather Definition


00:00 2.5 -1.7 74 LegendMM 4 13   101.97     LegendNANA
01:00 1.8 -0.7 83 LegendMM 4 15   101.90     LegendNANA
02:00 1.9 -1.3 79 LegendMM 4 12   101.91     LegendNANA
03:00 2.7 -4.2 61 LegendMM 5 13   101.83     LegendNANA
04:00 2.2 -4.4 62 LegendMM 4 12   101.81     LegendNANA
05:00 2.0 -4.7 61 LegendMM 5 15   101.83     LegendNANA
06:00 1.5 -4.8 63 LegendMM 4 15   101.92     LegendNANA
07:00 1.6 -4.1 66 LegendMM 4 15   101.89     LegendNANA
08:00 2.3 -3.9 63 LegendMM 5 18   101.88     LegendNANA
09:00 3.4 -4.3 57 LegendMM 5 18   101.91     LegendNANA
10:00 5.2 -4.3 50 LegendMM 4 22   101.95     LegendNANA
11:00 6.4 -4.8 44 LegendMM 7 27   101.95     LegendNANA
12:00 5.0 -6.0 45 LegendMM 6 36   101.92     LegendNANA
13:00 4.9 -4.9 49 LegendMM 6 37   101.89     LegendNANA
14:00 4.9 -5.9 46 LegendMM 6 34   101.87     LegendNANA
15:00 5.0 -6.1 44 LegendMM 6 37   101.84     LegendNANA
16:00 4.4 -3.2 58 LegendMM 6 32   101.83     LegendNANA
17:00 4.5 -4.4 52 LegendMM 6 30   101.84     LegendNANA
18:00 3.9 -5.1 52 LegendMM 6 32   101.82     LegendNANA
19:00 2.8 -4.9 57 LegendMM 6 26   101.82     LegendNANA
20:00 2.1 -5.7 57 LegendMM 5 17   101.82     LegendNANA
21:00 1.4 -6.4 56 LegendMM 4 14   101.80     LegendNANA
22:00 1.6 -6.2 56 LegendMM 4 14   101.76     LegendNANA
23:00 1.5 -6.1 57 LegendMM 4 15   101.70     LegendNANA

Notes on Data Quality.

Legend

  • E = Estimated
  • M = Missing
  • NA = Not Available*
  • [empty] = Indicates an unobserved value
Date modified: